This demonstration page uses our WeatherBlox Daily Observations layout. Learn more.

Left ArrowRight Arrow

53.62937, 11.41316

Hourly Observations for July 12, 2016

Temp ( °F °C ) Dew Point ( °F °C ) Humidity (%) Winds ( mph kmh ) Pressure ( in mb ) Visibility ( mi km ) Precip ( " mm )
6:20 am 06:20 Mostly Sunny 61 16 54 12 77 77 SSW 9 15 29.83 1010 7 11 N/A
6:50 am 06:50 Mostly Sunny 61 16 54 12 77 77 SW 12 19 29.83 1010 7 11 N/A
7:20 am 07:20 Mostly Sunny 63 17 54 12 73 73 SW 9 15 29.83 1010 30 48 N/A
7:50 am 07:50 Mostly Sunny 64 18 55 13 73 73 SSW 13 20 29.83 1010 7 11 N/A
8:20 am 08:20 Mostly Sunny 66 19 55 13 68 68 SW 15 24 29.83 1010 7 11 N/A
8:50 am 08:50 Mostly Sunny 66 19 55 13 68 68 WSW 16 26 29.83 1010 30 48 N/A
9:20 am 09:20 Mostly Sunny 68 20 55 13 64 64 WSW 16 26 29.83 1010 30 48 N/A
9:50 am 09:50 Partly Cloudy 68 20 54 12 60 60 SW 16 26 29.83 1010 30 48 N/A
10:20 am 10:20 Partly Cloudy 70 21 54 12 57 57 SW 20 31 29.83 1010 30 48 N/A
10:50 am 10:50 Partly Cloudy 70 21 54 12 57 57 WSW 15 24 29.83 1010 30 48 N/A
11:20 am 11:20 Partly Cloudy 72 22 55 13 57 57 SW 20 31 29.83 1010 30 48 N/A
11:50 am 11:50 Mostly Cloudy 73 23 54 12 50 50 W 13 20 29.83 1010 30 48 N/A
12:20 pm 12:20 Mostly Cloudy 72 22 54 12 53 53 WSW 16 26 29.83 1010 30 48 N/A
12:50 pm 12:50 Partly Cloudy 73 23 55 13 53 53 W 15 24 29.83 1010 30 48 N/A
1:20 pm 13:20 Mostly Cloudy 72 22 54 12 53 53 W 13 20 29.83 1010 30 48 N/A
1:50 pm 13:50 Partly Cloudy 72 22 54 12 53 53 WSW 17 28 29.83 1010 30 48 N/A
2:20 pm 14:20 Partly Cloudy 73 23 54 12 50 50 WSW 12 19 29.83 1010 30 48 N/A
2:50 pm 14:50 Mostly Cloudy 75 24 52 11 44 44 SW 17 28 29.83 1010 30 48 N/A
3:20 pm 15:20 Mostly Sunny 75 24 55 13 50 50 W 13 20 29.83 1010 7 11 N/A
3:50 pm 15:50 Mostly Cloudy with Light Showers 70 21 55 13 60 60 W 15 24 29.83 1010 30 48 N/A
4:20 pm 16:20 Partly Cloudy 68 20 61 16 78 78 WNW 7 11 29.83 1010 30 48 N/A
4:50 pm 16:50 Mostly Sunny 70 21 57 14 64 64 W 8 13 29.83 1010 7 11 N/A
5:20 pm 17:20 Mostly Sunny 73 23 59 15 61 61 W 8 13 29.83 1010 7 11 N/A
5:50 pm 17:50 Mostly Sunny 72 22 54 12 53 53 WSW 13 20 29.83 1010 7 11 N/A
6:20 pm 18:20 Mostly Cloudy 73 23 55 13 53 53 W 9 15 29.83 1010 30 48 N/A
6:50 pm 18:50 Partly Cloudy 70 21 54 12 57 57 W 12 19 29.85 1011 30 48 N/A

Powered by AerisWeather